sat.trackr.live / text

‹ back to catalog

JEN-1

NORAD 69006 · 2026-100AC

PAYLOAD ACTIVE UNKNOWN

§ Identity

Operator
Country
UK
Launch date
2026-05-03
Launch site
AFWTR
Launch vehicle
Mass (kg)
RCS (m²)

External: N2YO · Heavens-Above · Gunter

§ Orbital elements

Epoch: 2026-09-20T01:29:49.282080Z

Period
94.69 min
Inclination
97.3917°
Eccentricity
0.0011726
Mean motion
15.20796528 rev/d
Perigee alt
495.4 km
Apogee alt
511.5 km
Semi-major
6,881.6 km
B*
1.8851e-4
RAAN
159.1245°
Arg perigee
37.1584°
Mean anomaly
323.0461°
Rev number
2,122

§ Raw data

JEN-11 69006U 26100AC  26263.06237595  .00004093  00000+0  18851-3 0  99972 69006  97.3917 159.1245 0011726  37.1584 323.0461 15.20796528 21222

JSON: /api/v1/satellites/69006 · /tle

For live sub-satellite position, see the globe view (requires WebGL).

§ Visibility from observer

Set your observer location to see the next 7 days of passes ≥ 10°. The values pass through the URL so the page stays shareable.

No JS? Fill the form by hand. The geolocation button needs JavaScript.

§ Radio — SatNOGS DB

ModeDescriptionDownlinkUplink
FM S-band telemetry 2.260 GHz

1 transmitter · refreshed weekly from db.satnogs.org